{"data":{"norad_id":62133,"intl_designator":"2024-222V","name":"STARLINK-32245","alt_names":[],"object_type":"PAYLOAD","status":"ACTIVE","operator":null,"country":"US","launch_date":"2024-11-27","launch_site_code":"AFETR","launch_vehicle":null,"mission":null,"orbit_class":"UNKNOWN","rcs_meters":null,"size_class":null,"mass_kg":null,"dimensions":null,"purposes":["comms"],"wikipedia_slug":null,"has_3d_model":false,"image_url":null,"decayed_at":null,"tle_current":{"epoch":"2026-05-24T23:09:59.702112Z","epoch_age_seconds":85009,"freshness":"FRESH","line1":"1 62133U 24222V   26144.96527433  .00024482  00000+0  89592-3 0  9998","line2":"2 62133  43.0045  65.4747 0001492 261.1627  98.9056 15.27591077 84572","mean_motion":15.27591077,"eccentricity":0.0001492,"inclination_deg":43.0045,"raan_deg":65.4747,"arg_perigee_deg":261.1627,"mean_anomaly_deg":98.9056,"bstar":0.00089592,"rev_number":8457,"period_min":94.266065158484,"perigee_km":481.99224370034,"apogee_km":484.03961173397,"semimajor_km":6861.1529277172,"source":"CELESTRAK","updated_at":"2026-05-25T13:38:19.566885Z"}}}